SCP
-0 -0 -0 -0 -0 -0 -0 -0 -0 -0 -0 -0 -0 -0 -0 -0 -0 -0 -0 -0 -0 -1 -0 -0 -0 -1 0 0 1 1 0 0 0 0 0 0 0 0 0 0 0 0 0 -0 -0
0 0 0 -0 -0 -0 -0 -0 -0 -0 -0 -0 -0 -0 -0 -0 -0 0 0 -0 -0 -1 -0 -0 -2 -1 1 0 1 1 -0 0 0 0 0 0 0 0 0 0 0 0 -0 -0 -0
0 -0 0 0 -0 -0 -0 -0 -0 -0 -0 -0 -0 -0 -0 -0 -0 -0 0 0 -0 -0 0 -0 -0 0 0 0 0 0 0 0 0 0 0 0 0 0 0 0 0 -0 -0 -0 -0
-0 -0 -0 0 0 -0 -0 -0 -0 -0 -0 -0 -0 -0 -0 0 0 0 0 -0 -0 -0 0 0 -0 0 0 0 0 0 -0 -0 0 0 0 0 0 0 0 0 -0 -0 -0 -0 -0
0 0 0 0 -0 -0 -0 -0 -0 -0 -0 -0 -0 -0 0 0 0 0 0 0 0 0 0 -0 -0 -0 0 0 0 0 -0 -0 -0 0 0 0 0 0 0 0 -0 -0 -0 -0 -0
0 0 0 0 0 0 -0 -0 -0 -0 -0 -0 -0 -0 0 -0 0 -0 -0 0 -0 0 0 -0 0 -0 -0 0 -0 -0 -0 -0 -0 -0 -0 0 0 -0 0 0 -0 -0 -0 -0 -0
0 0 0 0 0 0 0 0 -0 -0 -0 0 0 0 0 0 0 0 0 0 0 -0 0 -0 -0 -0 0 0 0 -0 0 -0 0 -0 0 0 0 0 0 0 0 0 -0 -0 -0
-0 -0 0 -0 0 0 0 0 0 0 0 0 0 0 -0 0 0 0 -0 0 -0 0 -0 -0 -0 -0 -0 -0 -0 -0 -0 0 0 -0 0 -0 0 -0 0 0 0 0 0 0 0
-0 -0 -0 -0 -0 -0 -0 -0 -0 0 0 0 0 0 0 0 0 0 -0 0 0 -0 -0 -0 -0 0 -0 -0 0 0 0 -0 -0 -0 0 0 0 0 0 0 0 0 0 0 0
-0 -0 -0 -0 -0 -0 -0 -0 -0 0 0 0 0 0 0 -0 0 0 0 -0 0 0 0 0 -0 0 0 -0 0 0 0 0 -0 -0 0 0 -0 0 0 0 0 0 0 0 0
-0 -0 -0 -0 -0 -0 -0 0 0 0 0 0 0 0 0 -0 0 0 0 0 0 0 0 0 0 0 -0 -0 -0 0 0 -0 0 -0 -0 -0 0 0 0 0 0 0 0 0 0
-0 -0 -0 -0 -0 -0 0 0 0 0 0 -0 -0 0 0 0 0 0 0 0 0 0 0 0 0 0 -0 -0 -0 0 0 0 0 0 -0 -0 0 0 0 0 0 -0 0 0 0
-0 -0 -0 -0 -0 0 0 -0 -0 -0 -0 -0 -0 -0 0 0 0 0 0 0 0 0 0 0 0 0 -0 -0 0 0 0 0 0 -0 0 0 0 0 0 0 0 0 0 -0 0
-0 -0 -0 -0 0 0 -0 -0 -0 -0 0 0 -0 0 0 0 0 -0 0 0 0 0 0 0 -0 0 0 0 0 0 0 0 0 -0 0 0 0 0 0 1 0 0 0 -0 -0
-0 -0 -0 0 0 0 -0 -0 -0 0 -0 -0 -0 0 0 -0 -0 -0 0 0 -0 -0 0 0 0 0 0 0 0 -0 0 0 0 0 -0 0 0 0 0 0 0 -0 -0 -0 -0
-0 -0 -0 -0 0 -0 -0 -0 0 0 0 0 0 -0 -0 -0 -0 0 0 0 0 0 0 0 0 0 0 0 0 0 0 0 0 0 0 -0 0 0 0 0 0 -0 -0 0 -0
-0 -0 0 0 0 -0 -0 0 0 0 0 0 0 0 0 0 0 0 -0 -0 0 0 0 -0 0 -0 0 0 0 0 0 0 0 0 0 -0 0 0 0 0 0 -0 -0 0 -0
-0 -0 -0 0 -0 -0 0 0 -0 0 0 0 0 0 0 0 -0 0 0 0 -0 -0 0 0 -0 0 0 0 0 -0 0 -0 0 0 -0 0 0 0 0 0 0 0 0 -0 0
-0 0 0 0 -0 -0 0 0 -0 -0 -0 -0 -0 0 0 0 -0 0 0 0 0 0 0 0 0 0 -0 0 0 0 0 0 0 0 0 -0 0 -0 0 0 0 0 0 -0 0
0 0 0 -0 -0 -0 0 -0 0 -0 -0 -0 -0 -0 -0 0 -0 -0 0 0 0 0 0 0 0 0 0 0 0 0 0 0 0 0 0 0 0 0 0 0 0 0 -0 0 0
0 0 0 -0 0 0 0 0 -0 -0 -0 -0 -0 0 0 0 0 -0 0 0 0 0 0 0 0 0 0 0 0 0 0 0 0 0 0 0 -0 -0 -0 0 0 -0 0 0 -0
-0 0 0 0 0 0 0 0 0 0 0 0 -0 0 0 0 -0 -0 0 0 0 0 0 0 0 0 0 0 0 0 0 0 0 0 0 0 0 0 0 -0 -0 -0 -0 -0 -0
-0 0 0 -0 0 -0 0 0 0 0 -0 0 0 0 -0 0 0 0 0 0 0 0 0 0 0 0 0 0 0 0 0 0 0 0 0 0 0 -0 0 -0 -0 0 -0 0 0
0 0 0 -0 0 -0 0 0 0 0 0 0 0 0 0 0 0 0 0 0 0 0 0 0 -0 -0 0 0 0 0 0 0 0 0 0 0 0 0 0 -0 0 0 0 0 0
0 0 0 0 0 0 0 0 0 0 0 0 0 -0 0 0 0 0 0 0 0 -0 0 0 0 0 0 0 0 0 0 0 0 0 0 0 0 0 -0 -0 0 0 1 1 1
0 0 0 0 0 0 0 0 0 0 0 0 0 0 0 0 0 0 0 0 0 0 0 0 -0 0 0 0 0 0 0 0 0 0 0 0 0 -0 -0 0 -0 -0 1 1 2
0 0 0 0 0 0 0 0 0 0 0 0 0 0 0 0 0 0 0 -0 -0 -0 -0 0 0 0 -0 0 0 -0 0 0 0 0 -0 0 0 0 0 1 0 1 1 0 2
Wind_Speed_500mb
21 20 20 21 23 23 22 22 21 21 23 23 24 25 27 29 26 30 28 15 15 23 18 17 43 49 28 32 13 23 9 11 25 20 10 28 31 43 49 58 42 49 47 73 68
24 23 22 22 23 24 25 24 22 22 23 24 24 26 27 31 31 34 31 30 30 24 19 13 34 39 43 8 11 8 5 21 22 14 12 28 29 30 27 55 49 37 52 66 69
26 25 25 24 23 24 25 26 25 23 23 24 25 24 28 30 31 34 30 26 25 22 10 20 32 34 34 13 9 18 15 26 30 30 38 24 27 29 32 17 48 67 78 77 70
28 27 27 27 25 24 25 26 26 25 23 25 25 24 27 23 7 10 11 18 24 23 18 22 29 48 3 10 8 9 35 34 32 24 26 20 37 21 36 29 57 86 85 78 74
28 30 29 28 27 27 24 24 25 26 25 25 25 25 23 15 33 32 21 15 25 27 24 20 44 46 2 12 19 19 27 35 61 13 25 16 16 4 40 49 72 82 76 72 66
31 30 30 30 28 27 26 23 21 23 24 25 23 24 22 13 7 19 27 18 20 30 25 23 34 54 36 17 25 34 25 38 62 64 21 12 11 13 30 65 76 76 76 70 69
33 32 30 29 28 25 24 22 20 19 21 22 21 21 27 41 1 18 24 19 16 25 30 32 45 49 35 11 47 41 6 25 27 39 8 17 3 5 13 59 67 67 69 70 67
35 34 31 27 25 23 21 19 19 16 15 16 16 17 22 19 24 21 28 29 26 29 30 30 37 37 19 57 19 20 7 12 9 11 10 8 18 8 19 40 61 65 64 64 59
36 32 28 24 21 19 16 17 15 13 9 11 8 11 24 17 30 33 33 35 29 36 39 30 35 33 20 26 8 5 8 2 22 16 17 16 13 16 28 31 52 58 60 61 60
35 29 24 20 17 13 11 16 14 10 7 10 14 15 30 36 31 25 29 28 31 35 42 41 33 13 12 9 11 16 10 4 16 13 19 24 29 9 38 38 48 58 57 58 62
34 27 21 15 11 5 7 12 13 3 16 22 18 29 18 20 8 3 14 21 26 29 14 37 8 15 26 15 35 25 24 35 47 45 35 37 35 32 39 39 44 52 61 63 62
33 26 18 11 4 5 15 15 19 15 19 34 39 45 33 20 11 26 31 28 25 14 17 15 15 23 28 37 41 33 21 14 29 53 33 42 32 35 37 37 41 47 54 59 58
32 23 14 7 7 5 12 11 19 22 9 23 36 30 33 31 36 47 33 41 20 15 19 17 23 27 29 27 31 19 20 22 26 47 15 8 15 38 6 28 36 12 30 66 69
30 21 10 6 7 12 18 15 18 11 6 8 18 13 15 9 18 48 41 40 14 23 22 16 29 31 30 22 18 20 41 17 16 6 3 4 3 4 9 12 15 69 49 70 78
26 18 9 9 6 14 19 17 23 8 4 20 13 22 12 21 27 12 24 3 14 20 9 23 18 18 22 23 18 15 16 12 16 17 11 9 9 9 11 10 16 42 41 65 82
25 18 9 5 1 19 22 20 13 3 4 11 17 17 15 26 26 11 12 16 34 16 24 21 51 14 13 12 12 19 17 21 15 5 9 19 11 11 15 23 28 47 53 56 77
22 18 11 11 9 10 21 21 4 6 6 12 1 13 22 15 18 17 18 13 9 6 13 18 27 20 16 13 16 14 13 9 10 9 14 23 8 16 44 31 31 43 44 49 71
23 18 11 4 7 12 20 8 7 17 16 3 4 15 5 6 9 16 12 10 19 18 12 11 18 10 16 18 19 15 8 9 9 8 13 16 12 7 27 42 43 44 40 53 48
23 20 17 2 8 8 15 5 4 17 22 18 23 13 8 7 3 9 8 10 14 14 7 12 18 27 26 10 22 13 6 15 5 11 8 9 12 10 10 14 34 40 51 74 70
32 25 20 2 5 8 5 9 6 14 15 24 17 16 15 9 7 18 11 13 15 22 19 15 17 17 21 19 14 5 8 12 8 7 13 15 15 6 12 12 9 21 15 36 76
25 16 4 8 12 21 7 5 8 19 15 13 19 16 16 15 17 20 14 22 21 21 25 18 12 21 16 10 13 10 4 7 8 10 7 5 15 3 11 26 14 38 64 21 51
17 6 9 8 13 13 5 4 6 10 8 6 9 14 15 19 17 18 13 10 23 18 9 16 8 11 22 12 24 12 19 4 10 18 9 9 16 13 17 10 36 64 45 29 22
30 18 7 5 6 10 6 6 4 14 19 17 16 15 18 13 10 15 22 17 27 9 7 11 9 10 24 17 29 14 18 16 10 7 7 5 13 16 20 30 47 24 55 20 23
14 7 8 8 15 16 18 14 4 13 6 10 15 19 13 14 15 10 8 10 13 22 20 10 6 11 11 19 13 18 26 20 11 7 12 9 18 20 16 12 23 35 35 37 33
12 9 20 9 18 16 18 18 21 11 9 10 4 15 11 11 18 18 26 20 29 11 4 6 9 13 18 18 19 22 27 25 17 15 7 20 21 26 16 9 26 34 38 30 22
18 17 25 31 35 17 10 8 17 16 15 16 17 26 16 10 9 14 17 16 9 17 17 17 12 13 12 17 21 24 20 18 18 15 16 18 30 14 34 83 80 78 29 29 18
39 17 11 24 18 18 10 17 19 18 12 26 24 13 14 17 28 26 34 42 31 19 14 11 9 10 11 17 19 15 17 19 18 15 11 12 4 12 34 36 44 56 62 89 95
Wind_Direction_500mb
322 316 308 302 300 301 303 305 309 313 317 318 319 318 317 307 298 290 285 298 294 309 318 142 156 168 175 239 250 227 282 69 105 111 178 120 95 105 133 139 159 170 164 165 160
321 316 310 302 297 295 296 298 301 305 309 311 314 316 316 312 303 277 275 275 277 298 326 227 206 196 211 259 228 200 176 114 119 147 139 139 117 133 138 155 165 137 147 156 159
321 315 309 304 298 292 291 292 293 296 300 304 308 311 313 318 311 279 265 258 266 286 301 273 276 289 210 202 259 274 88 96 108 121 117 120 134 162 159 149 155 148 152 159 160
321 316 311 306 301 294 288 287 289 291 293 296 301 306 309 309 285 7 296 242 251 272 285 298 293 286 146 102 275 22 14 114 119 128 151 169 158 170 179 176 164 155 158 162 168
323 318 313 308 303 298 292 286 285 286 288 288 294 302 314 302 261 294 279 256 262 271 279 294 290 306 75 127 340 26 45 4 26 304 121 98 59 190 124 138 146 153 159 166 174
326 320 315 310 305 300 296 292 286 283 284 284 287 297 304 263 240 285 282 266 270 265 266 278 280 306 85 73 70 336 74 71 19 309 40 49 61 62 132 143 145 153 162 173 183
328 322 316 310 306 301 296 294 289 282 280 279 283 287 279 251 118 297 303 295 288 268 274 289 298 328 338 71 44 354 334 100 185 250 279 328 67 139 132 153 153 159 169 179 191
329 324 318 312 307 300 297 296 293 289 279 274 272 283 266 271 288 239 259 263 266 277 278 291 295 300 27 116 94 294 331 9 252 302 276 59 276 254 206 165 161 165 174 183 193
331 326 320 315 308 303 302 297 289 284 272 261 251 279 273 276 239 239 248 258 257 260 257 263 277 282 243 120 80 287 297 184 297 219 217 200 245 230 203 185 160 168 177 186 195
335 331 326 320 316 318 311 302 284 268 260 265 206 295 258 238 255 246 250 243 259 276 278 246 251 268 276 176 176 215 328 147 259 283 223 209 256 221 193 178 166 170 181 191 197
346 341 334 331 339 355 17 335 345 105 227 219 211 216 304 268 294 261 219 273 256 263 287 288 216 243 257 271 155 123 106 307 312 290 271 242 206 183 190 177 167 176 182 194 199
350 349 347 355 35 68 9 12 17 329 296 275 258 251 270 305 324 280 246 246 263 233 256 295 266 254 262 272 141 144 175 191 209 263 261 268 170 179 176 179 169 177 184 195 201
354 357 5 40 97 44 4 20 349 338 270 286 225 240 252 239 250 267 227 224 240 271 242 232 256 269 268 272 153 188 203 248 212 239 253 287 145 157 73 109 131 159 216 199 201
357 1 13 78 14 339 294 1 324 333 304 210 189 240 174 218 279 242 245 240 240 244 262 235 249 266 279 279 259 223 222 287 320 23 272 38 217 129 180 175 169 214 213 208 200
357 2 358 334 356 10 353 341 327 318 314 169 182 163 232 185 285 225 245 277 253 267 276 265 273 262 272 274 292 277 298 331 326 330 16 300 80 251 183 187 197 243 230 220 199
353 353 345 289 286 7 343 322 313 327 254 144 154 188 200 223 256 166 187 236 281 306 295 263 286 269 259 306 353 341 353 337 322 352 339 261 172 246 190 191 210 230 234 212 197
336 335 327 290 300 4 338 314 309 226 169 43 147 177 199 191 223 175 185 214 185 304 267 281 269 271 277 309 338 346 351 328 334 340 233 259 292 229 199 192 198 214 231 273 197
323 319 288 321 9 21 327 311 268 16 39 156 260 285 342 60 287 198 226 214 217 215 264 249 311 289 289 187 203 245 188 161 287 275 268 327 296 184 166 192 183 191 201 219 236
321 307 304 101 28 34 286 290 327 1 354 337 325 258 198 137 217 237 239 109 83 69 45 9 322 330 325 291 168 252 281 237 300 290 7 283 347 8 84 168 205 181 186 216 217
338 317 303 332 306 300 282 274 28 2 347 323 327 4 2 37 327 357 91 28 64 42 20 325 338 313 307 351 351 118 234 358 352 2 325 307 298 207 225 210 358 40 257 244 217
347 325 103 132 216 234 247 281 6 78 354 338 352 344 2 16 357 346 67 38 42 23 1 6 16 305 342 325 318 318 270 239 166 149 198 296 286 162 194 188 172 84 38 342 190
350 292 171 205 280 249 215 102 347 1 135 297 313 339 4 359 351 354 30 87 65 35 27 10 275 326 296 347 19 31 11 36 112 291 230 168 273 315 4 28 148 148 174 166 87
336 273 180 220 281 321 129 160 195 4 5 360 360 18 7 344 353 337 340 131 103 91 103 18 342 350 335 341 2 7 334 324 340 46 285 111 270 44 31 52 48 172 180 165 130
335 306 19 267 287 1 2 355 77 133 248 39 347 334 323 348 343 312 316 333 142 108 119 114 253 217 248 269 299 333 330 331 342 10 306 285 324 343 6 74 83 87 75 58 54
352 356 7 332 341 353 342 339 328 326 102 60 262 309 14 27 344 348 359 347 1 133 316 138 252 271 283 315 329 319 310 310 311 289 313 300 322 306 341 159 137 113 104 88 59
18 356 337 305 310 311 263 309 305 28 29 357 345 350 18 32 53 329 350 348 301 337 347 332 311 334 327 321 314 311 308 297 290 291 297 297 292 13 40 53 44 19 71 107 97
3 336 322 293 308 303 20 9 354 16 348 342 12 8 340 350 353 331 303 287 273 275 280 287 294 338 294 312 314 324 292 306 295 311 325 298 311 316 47 44 35 40 29 17 354
Wind_Speed_850mb
21 20 20 21 23 23 22 22 21 21 23 23 24 25 27 29 26 30 28 15 15 23 18 17 43 49 28 32 13 23 9 11 25 20 10 28 31 43 49 58 42 49 47 73 68
24 23 22 22 23 24 25 24 22 22 23 24 24 26 27 31 31 34 31 30 30 24 19 13 34 39 43 8 11 8 5 21 22 14 12 28 29 30 27 55 49 37 52 66 69
26 25 25 24 23 24 25 26 25 23 23 24 25 24 28 30 31 34 30 26 25 22 10 20 32 34 34 13 9 18 15 26 30 30 38 24 27 29 32 17 48 67 78 77 70
28 27 27 27 25 24 25 26 26 25 23 25 25 24 27 23 7 10 11 18 24 23 18 22 29 48 3 10 8 9 35 34 32 24 26 20 37 21 36 29 57 86 85 78 74
28 30 29 28 27 27 24 24 25 26 25 25 25 25 23 15 33 32 21 15 25 27 24 20 44 46 2 12 19 19 27 35 61 13 25 16 16 4 40 49 72 82 76 72 66
31 30 30 30 28 27 26 23 21 23 24 25 23 24 22 13 7 19 27 18 20 30 25 23 34 54 36 17 25 34 25 38 62 64 21 12 11 13 30 65 76 76 76 70 69
33 32 30 29 28 25 24 22 20 19 21 22 21 21 27 41 1 18 24 19 16 25 30 32 45 49 35 11 47 41 6 25 27 39 8 17 3 5 13 59 67 67 69 70 67
35 34 31 27 25 23 21 19 19 16 15 16 16 17 22 19 24 21 28 29 26 29 30 30 37 37 19 57 19 20 7 12 9 11 10 8 18 8 19 40 61 65 64 64 59
36 32 28 24 21 19 16 17 15 13 9 11 8 11 24 17 30 33 33 35 29 36 39 30 35 33 20 26 8 5 8 2 22 16 17 16 13 16 28 31 52 58 60 61 60
35 29 24 20 17 13 11 16 14 10 7 10 14 15 30 36 31 25 29 28 31 35 42 41 33 13 12 9 11 16 10 4 16 13 19 24 29 9 38 38 48 58 57 58 62
34 27 21 15 11 5 7 12 13 3 16 22 18 29 18 20 8 3 14 21 26 29 14 37 8 15 26 15 35 25 24 35 47 45 35 37 35 32 39 39 44 52 61 63 62
33 26 18 11 4 5 15 15 19 15 19 34 39 45 33 20 11 26 31 28 25 14 17 15 15 23 28 37 41 33 21 14 29 53 33 42 32 35 37 37 41 47 54 59 58
32 23 14 7 7 5 12 11 19 22 9 23 36 30 33 31 36 47 33 41 20 15 19 17 23 27 29 27 31 19 20 22 26 47 15 8 15 38 6 28 36 12 30 66 69
30 21 10 6 7 12 18 15 18 11 6 8 18 13 15 9 18 48 41 40 14 23 22 16 29 31 30 22 18 20 41 17 16 6 3 4 3 4 9 12 15 69 49 70 78
26 18 9 9 6 14 19 17 23 8 4 20 13 22 12 21 27 12 24 3 14 20 9 23 18 18 22 23 18 15 16 12 16 17 11 9 9 9 11 10 16 42 41 65 82
25 18 9 5 1 19 22 20 13 3 4 11 17 17 15 26 26 11 12 16 34 16 24 21 51 14 13 12 12 19 17 21 15 5 9 19 11 11 15 23 28 47 53 56 77
22 18 11 11 9 10 21 21 4 6 6 12 1 13 22 15 18 17 18 13 9 6 13 18 27 20 16 13 16 14 13 9 10 9 14 23 8 16 44 31 31 43 44 49 71
23 18 11 4 7 12 20 8 7 17 16 3 4 15 5 6 9 16 12 10 19 18 12 11 18 10 16 18 19 15 8 9 9 8 13 16 12 7 27 42 43 44 40 53 48
23 20 17 2 8 8 15 5 4 17 22 18 23 13 8 7 3 9 8 10 14 14 7 12 18 27 26 10 22 13 6 15 5 11 8 9 12 10 10 14 34 40 51 74 70
32 25 20 2 5 8 5 9 6 14 15 24 17 16 15 9 7 18 11 13 15 22 19 15 17 17 21 19 14 5 8 12 8 7 13 15 15 6 12 12 9 21 15 36 76
25 16 4 8 12 21 7 5 8 19 15 13 19 16 16 15 17 20 14 22 21 21 25 18 12 21 16 10 13 10 4 7 8 10 7 5 15 3 11 26 14 38 64 21 51
17 6 9 8 13 13 5 4 6 10 8 6 9 14 15 19 17 18 13 10 23 18 9 16 8 11 22 12 24 12 19 4 10 18 9 9 16 13 17 10 36 64 45 29 22
30 18 7 5 6 10 6 6 4 14 19 17 16 15 18 13 10 15 22 17 27 9 7 11 9 10 24 17 29 14 18 16 10 7 7 5 13 16 20 30 47 24 55 20 23
14 7 8 8 15 16 18 14 4 13 6 10 15 19 13 14 15 10 8 10 13 22 20 10 6 11 11 19 13 18 26 20 11 7 12 9 18 20 16 12 23 35 35 37 33
12 9 20 9 18 16 18 18 21 11 9 10 4 15 11 11 18 18 26 20 29 11 4 6 9 13 18 18 19 22 27 25 17 15 7 20 21 26 16 9 26 34 38 30 22
18 17 25 31 35 17 10 8 17 16 15 16 17 26 16 10 9 14 17 16 9 17 17 17 12 13 12 17 21 24 20 18 18 15 16 18 30 14 34 83 80 78 29 29 18
39 17 11 24 18 18 10 17 19 18 12 26 24 13 14 17 28 26 34 42 31 19 14 11 9 10 11 17 19 15 17 19 18 15 11 12 4 12 34 36 44 56 62 89 95
Wind_Direction_850mb
322 316 308 302 300 301 303 305 309 313 317 318 319 318 317 307 298 290 285 298 294 309 318 142 156 168 175 239 250 227 282 69 105 111 178 120 95 105 133 139 159 170 164 165 160
321 316 310 302 297 295 296 298 301 305 309 311 314 316 316 312 303 277 275 275 277 298 326 227 206 196 211 259 228 200 176 114 119 147 139 139 117 133 138 155 165 137 147 156 159
321 315 309 304 298 292 291 292 293 296 300 304 308 311 313 318 311 279 265 258 266 286 301 273 276 289 210 202 259 274 88 96 108 121 117 120 134 162 159 149 155 148 152 159 160
321 316 311 306 301 294 288 287 289 291 293 296 301 306 309 309 285 7 296 242 251 272 285 298 293 286 146 102 275 22 14 114 119 128 151 169 158 170 179 176 164 155 158 162 168
323 318 313 308 303 298 292 286 285 286 288 288 294 302 314 302 261 294 279 256 262 271 279 294 290 306 75 127 340 26 45 4 26 304 121 98 59 190 124 138 146 153 159 166 174
326 320 315 310 305 300 296 292 286 283 284 284 287 297 304 263 240 285 282 266 270 265 266 278 280 306 85 73 70 336 74 71 19 309 40 49 61 62 132 143 145 153 162 173 183
328 322 316 310 306 301 296 294 289 282 280 279 283 287 279 251 118 297 303 295 288 268 274 289 298 328 338 71 44 354 334 100 185 250 279 328 67 139 132 153 153 159 169 179 191
329 324 318 312 307 300 297 296 293 289 279 274 272 283 266 271 288 239 259 263 266 277 278 291 295 300 27 116 94 294 331 9 252 302 276 59 276 254 206 165 161 165 174 183 193
331 326 320 315 308 303 302 297 289 284 272 261 251 279 273 276 239 239 248 258 257 260 257 263 277 282 243 120 80 287 297 184 297 219 217 200 245 230 203 185 160 168 177 186 195
335 331 326 320 316 318 311 302 284 268 260 265 206 295 258 238 255 246 250 243 259 276 278 246 251 268 276 176 176 215 328 147 259 283 223 209 256 221 193 178 166 170 181 191 197
346 341 334 331 339 355 17 335 345 105 227 219 211 216 304 268 294 261 219 273 256 263 287 288 216 243 257 271 155 123 106 307 312 290 271 242 206 183 190 177 167 176 182 194 199
350 349 347 355 35 68 9 12 17 329 296 275 258 251 270 305 324 280 246 246 263 233 256 295 266 254 262 272 141 144 175 191 209 263 261 268 170 179 176 179 169 177 184 195 201
354 357 5 40 97 44 4 20 349 338 270 286 225 240 252 239 250 267 227 224 240 271 242 232 256 269 268 272 153 188 203 248 212 239 253 287 145 157 73 109 131 159 216 199 201
357 1 13 78 14 339 294 1 324 333 304 210 189 240 174 218 279 242 245 240 240 244 262 235 249 266 279 279 259 223 222 287 320 23 272 38 217 129 180 175 169 214 213 208 200
357 2 358 334 356 10 353 341 327 318 314 169 182 163 232 185 285 225 245 277 253 267 276 265 273 262 272 274 292 277 298 331 326 330 16 300 80 251 183 187 197 243 230 220 199
353 353 345 289 286 7 343 322 313 327 254 144 154 188 200 223 256 166 187 236 281 306 295 263 286 269 259 306 353 341 353 337 322 352 339 261 172 246 190 191 210 230 234 212 197
336 335 327 290 300 4 338 314 309 226 169 43 147 177 199 191 223 175 185 214 185 304 267 281 269 271 277 309 338 346 351 328 334 340 233 259 292 229 199 192 198 214 231 273 197
323 319 288 321 9 21 327 311 268 16 39 156 260 285 342 60 287 198 226 214 217 215 264 249 311 289 289 187 203 245 188 161 287 275 268 327 296 184 166 192 183 191 201 219 236
321 307 304 101 28 34 286 290 327 1 354 337 325 258 198 137 217 237 239 109 83 69 45 9 322 330 325 291 168 252 281 237 300 290 7 283 347 8 84 168 205 181 186 216 217
338 317 303 332 306 300 282 274 28 2 347 323 327 4 2 37 327 357 91 28 64 42 20 325 338 313 307 351 351 118 234 358 352 2 325 307 298 207 225 210 358 40 257 244 217
347 325 103 132 216 234 247 281 6 78 354 338 352 344 2 16 357 346 67 38 42 23 1 6 16 305 342 325 318 318 270 239 166 149 198 296 286 162 194 188 172 84 38 342 190
350 292 171 205 280 249 215 102 347 1 135 297 313 339 4 359 351 354 30 87 65 35 27 10 275 326 296 347 19 31 11 36 112 291 230 168 273 315 4 28 148 148 174 166 87
336 273 180 220 281 321 129 160 195 4 5 360 360 18 7 344 353 337 340 131 103 91 103 18 342 350 335 341 2 7 334 324 340 46 285 111 270 44 31 52 48 172 180 165 130
335 306 19 267 287 1 2 355 77 133 248 39 347 334 323 348 343 312 316 333 142 108 119 114 253 217 248 269 299 333 330 331 342 10 306 285 324 343 6 74 83 87 75 58 54
352 356 7 332 341 353 342 339 328 326 102 60 262 309 14 27 344 348 359 347 1 133 316 138 252 271 283 315 329 319 310 310 311 289 313 300 322 306 341 159 137 113 104 88 59
18 356 337 305 310 311 263 309 305 28 29 357 345 350 18 32 53 329 350 348 301 337 347 332 311 334 327 321 314 311 308 297 290 291 297 297 292 13 40 53 44 19 71 107 97
3 336 322 293 308 303 20 9 354 16 348 342 12 8 340 350 353 331 303 287 273 275 280 287 294 338 294 312 314 324 292 306 295 311 325 298 311 316 47 44 35 40 29 17 354